Showing default

COSMOS 2301, 23443

Orbit data source: Space-Track

COSMOS 2301, 23443 is a payload satellite owned by VKS (CIS) in LEO that was launched on Mon, 26 Dec 1994 UTC via a TSIKLON-3 launch vehicle from the Plesetsk Missile And Space Complex (PKMTR). Payload-class satellites include a variety of spacecraft equipped with specific instruments for various scientific and technological missions. These include communications satellites like Starlink; space stations such as the ISS; scientific satellites like the Hubble; Earth observation satellites from companies like Planet Labs, Umbra, and HawkEye 360; GPS; miniature CubeSats for education and research; and military/defense satellites.

Loading next visibility...
Identifier
23443, 1994-086C
Orbit
LEO
Country
Flag of CISCIS
Related business
Manufacturer
NPO PM
Mission
Defense Communications
Bus & Motor
STRELA-3, Unknown motor
Mass
225 kg wet, 225 kg dry
Launch date (UTC)
1994-12-26 (31 years ago)
Launch vehicle
TSIKLON-3
Launch site
Plesetsk Missile And Space Complex (PKMTR)
Object type
Payload
Rocket body
Debris
Shape & HBR
Cyl, 0.8 m
Radar Cross Section
1.257 m², Large (>1 m²)

Expand to show TLE details & history
Last TLE update: 9 hours ago

TLE from 9 hours ago
0 COSMOS 2301
1 23443U 94086C   26071.25576035  .00000030  00000-0  11144-3 0  9999
2 23443  82.5755  22.6905 0002563  37.7748  78.1415 12.62223945437675
Epoch: 2026-03-12T06:08Z
TLE epoch observation values (Epoch: 2026-03-12T06:08:17.694Z)
Latitude
63.16845°
Longitude
-74.14512°
Altitude
1,424.192 km
Speed
7.155 km/s
True Right ascension
12h 31m 20s
True Declination
63° 02' 30"
Sunlit
Object was in daylight at epoch
Visualization orbit readout
Latitude
Unknown
Longitude
Unknown
Altitude
Unknown
Speed
Unknown
Apparent Right ascension
Unknown
Apparent Declination
Unknown
Sunlit
N/A
Visualization observer readout
Local Sidereal Time
19:40:17
Azimuth
Unknown
Elevation
Unknown
Doppler factor
Unknown
Orbital elements
Apogee altitude
1,413.096 km
Perigee altitude
1,409.103 km
Semi-major axis
7,789.236 km
Eccentricity
0.00026
Inclination
82.5755°
RAAN
22.6905°
Arg. of periapsis
37.7748°
True anomaly
78.17024°
Mean anomaly
78.1415°
Eccentric anomaly
78.15587°
Mean motion
3.15719 °/min
Orbital period
114.03 mins
BSTAR
0.00011144
Loading maneuver chart data...
Computing Atmospheric mass density...
Loading historical data...
Loading historical data...
Loading historical data...
Loading historical data...
Loading historical data...
Loading historical data...
Loading historical data...

Documentation

Showing up to 5 results
|